Location: Arbon
(43.0005°N, 0.7472°E)
Time: 07:40:01
(UTC+00:00)

Vanguard 1 - Pass Details

Date: 03 December 2020
Orbit: 648 x 3834 km, 34.3° (Epoch: 21 January)

Event Time Altitude Azimuth Distance (km) Brightness Sun altitude
Rises 05:19:35 0° 250° (WSW) 3,259 - -19.7°
Reaches altitude 10° 05:21:42 10° 243° (WSW) 2,510 - -19.4°
Exits shadow 05:23:02 18° 235° (SW) 2,103 11.4 -19.1°
Maximum altitude 05:27:14 44° 171° (S) 1,581 11.2 -18.4°
Drops below altitude 10° 05:36:35 10° 105° (ESE) 4,212 14.6 -16.7°
Sets 05:41:16 0° 100° (E) 5,755 15.8 -15.9°
